Overview Statistics Trail Chart Weather Telemetry Raw packets
 

This is the latest recevied weather packets stored in our database for station/object SV9TNF-57. If no packets are shown the sender has not sent any weather packets the latest 10 day(s).

<< 99 100 101 102 103 104 105 >>
Time Temp. Humidity Pressure Rain* Wind** Luminosity Snow
1787920582 31.11° C 51% 995.1 hPa 0 mm 3.58 m/s, 170° - -
1787920282 30.56° C 54% 995.3 hPa 0 mm 3.13 m/s, 125° - -
1787919982 31.11° C 52% 995.1 hPa 0 mm 4.02 m/s, 71° - -
1787919682 30.56° C 55% 995.2 hPa 0 mm 2.68 m/s, 35° - -
1787919382 31.11° C 47% 995.4 hPa 0 mm 1.34 m/s, 54° - -
1787919081 31.11° C 49% 995.3 hPa 0 mm 8.49 m/s, 137° - -
1787918781 31.11° C 53% 995.3 hPa 0 mm 2.68 m/s, 109° - -
1787918181 31.11° C 58% 995.4 hPa 0 mm 5.36 m/s, 217° - -
1787917881 30.56° C 58% 995.3 hPa 0 mm 6.26 m/s, 169° - -
1787917581 30° C 60% 995.3 hPa 0 mm 4.92 m/s, 193° - -
1787917281 31.11° C 59% 995.3 hPa 0 mm 2.68 m/s, 139° - -
1787916981 31.11° C 56% 995.2 hPa 0 mm 4.92 m/s, 146° - -
1787916681 31.11° C 55% 995.2 hPa 0 mm 3.58 m/s, 107° - -
1787916381 31.67° C 57% 995.5 hPa 0 mm 2.68 m/s, 107° - -
1787916080 31.11° C 57% 995.4 hPa 0 mm 0 m/s - -
1787915780 30.56° C 59% 995.7 hPa 0 mm 4.02 m/s, 211° - -
1787915480 31.67° C 49% 995.7 hPa 0 mm 6.26 m/s, 97° - -
1787915180 32.22° C 51% 995.5 hPa 0 mm 7.6 m/s, 142° - -
1787914880 31.11° C 47% 995.7 hPa 0 mm 2.68 m/s, 181° - -
1787914580 30.56° C 51% 995.7 hPa 0 mm 0 m/s - -
1787914280 31.11° C 49% 995.8 hPa 0 mm 5.36 m/s, 176° - -
1787913980 30.56° C 51% 996 hPa 0 mm 3.58 m/s, 210° - -
1787913680 30.56° C 54% 996 hPa 0 mm 5.81 m/s, 200° - -
1787913379 30.56° C 50% 995.9 hPa 0 mm 2.24 m/s, 225° - -
1787913079 30° C 55% 996 hPa 0 mm 5.36 m/s, 140° - -

* Rain latest hour (hover to see other rain measurements)
** Current wind speed in m/s (hover to see current wind gust speed)